Home   Weather   Atlanta   Past weeks

Flag for USA Past Weather in Atlanta, Georgia, USA — Yesterday and Last 2 Weeks

Now
63 °F

Clear.


Feels Like: 63 °F
Forecast: 53 / 73 °F
Wind: No wind

Location: Fulton County Airport-Brown Field

Current Time: Sep 29, 2016 at 11:20:52 PM

Latest Report: Sep 29, 2016 at 10:53 PM


Visibility: 10 mi

Pressure: 30.05 "Hg

Humidity: 54%

Dew Point: 46 °F

Location of AtlantaLocation

Past Weather in Atlanta — Graph

°F

Atlanta Temperature Yesterday

Maximum temperature yesterday: 86 °F (at 3:53 PM)
Minimum temperature yesterday: 62 °F (at 11:53 PM)
Average temperature yesterday: 73 °F

High & Low Weather Summary for the Past Weeks

 TemperatureHumidityPressure
High93 °F (Sep 15, 4:53 PM)97% (Sep 28, 3:04 AM)30.18 "Hg (Sep 28, 3:04 AM)
Low57 °F (Sep 29, 3:53 AM)30% (Sep 28, 6:53 PM)29.83 "Hg (Sep 27, 4:53 PM)
Average76 °F68%30.02 "Hg
* Reported Sep 14 9:53 PM — Sep 29 9:53 PM, Atlanta, Weather by CustomWeather, © 2016

Note: Actual official high and low records may vary slightly from our data, if they occured in-between our weather recording intervals... More about our weather records

Advertising

Atlanta Weather History for the Previous 24 Hours

Scroll right to see more
 ConditionsComfort  
Time TempWeatherWind HumidityBarometerVisibility
9:53 PM
Thu, Sep 29
64 °FClear.3 mph52%30.05 "Hg10 mi
8:53 PM66 °FClear.8 mph47%30.03 "Hg10 mi
7:53 PM66 °FClear.3 mph50%30.00 "Hg10 mi
6:53 PM73 °FSunny.7 mph34%29.98 "Hg10 mi
5:53 PM75 °FSunny.12 mph31%29.97 "Hg10 mi
4:53 PM76 °FSunny.9 mph30%29.97 "Hg10 mi
3:53 PM76 °FSunny.8 mph31%29.96 "Hg10 mi
2:53 PM76 °FSunny.10 mph33%29.98 "Hg10 mi
1:53 PM73 °FPassing clouds.5 mph44%29.99 "Hg10 mi
12:53 PM72 °FSunny.12 mph52%30.00 "Hg10 mi
11:53 AM71 °FSunny.6 mph53%30.01 "Hg10 mi
10:53 AM68 °FSunny.10 mph61%30.00 "Hg10 mi
9:53 AM64 °FSunny.9 mph68%29.98 "Hg10 mi
8:53 AM61 °FSunny.7 mph75%29.97 "Hg10 mi
7:53 AM59 °FSunny.6 mph78%29.95 "Hg10 mi
6:53 AM58 °FClear.3 mph81%29.94 "Hg10 mi
5:53 AM58 °FClear.No wind84%29.92 "Hg10 mi
4:53 AM59 °FClear.No wind84%29.91 "Hg10 mi
3:53 AM57 °FClear.No wind93%29.90 "Hg10 mi
2:53 AM59 °FClear.No wind90%29.91 "Hg10 mi
1:53 AM60 °FClear.No wind86%29.91 "Hg10 mi
12:53 AM61 °FClear.No wind87%29.92 "Hg10 mi
11:53 PM
Wed, Sep 28
62 °FClear.No wind83%29.92 "Hg10 mi
Weather by CustomWeather, © 2016

See weather overviewHow to use our weather pages